GFSFLT1_500_temp_132.txt.gz
Temp
-16 -15 -15 -16 -15 -15 -16 -15 -15 -15 -15 -14 -14 -14 -13 -13 -13 -13 -13 -13 -13 -13 -13 -12 -12 -12 -12 -12 -12 -12 -12 -12
-16 -16 -16 -15 -16 -15 -16 -16 -15 -15 -15 -15 -14 -14 -14 -14 -13 -13 -13 -13 -13 -13 -13 -13 -12 -12 -12 -12 -12 -12 -12 -12
-16 -16 -16 -16 -15 -16 -16 -16 -16 -16 -15 -15 -15 -15 -15 -15 -14 -14 -13 -13 -13 -13 -13 -13 -13 -12 -13 -13 -13 -12 -12 -12
-15 -16 -16 -16 -16 -16 -16 -16 -16 -16 -15 -16 -15 -15 -15 -15 -14 -14 -13 -13 -13 -13 -14 -13 -13 -13 -13 -13 -13 -13 -12 -12
-17 -16 -17 -16 -16 -16 -16 -16 -16 -16 -16 -16 -15 -15 -15 -14 -15 -15 -14 -15 -14 -14 -14 -14 -13 -13 -13 -14 -13 -13 -13 -13
-19 -17 -17 -17 -17 -16 -16 -16 -17 -16 -16 -16 -15 -15 -15 -15 -15 -15 -15 -15 -14 -14 -14 -14 -14 -14 -14 -14 -14 -13 -13 -13
-21 -20 -17 -17 -17 -17 -16 -16 -16 -16 -15 -15 -14 -15 -15 -15 -15 -15 -15 -15 -14 -14 -14 -14 -14 -14 -14 -14 -14 -13 -13 -13
-20 -20 -17 -17 -17 -16 -16 -16 -16 -15 -16 -15 -15 -16 -15 -15 -16 -15 -16 -15 -15 -14 -14 -14 -14 -14 -14 -14 -14 -14 -14 -13
-21 -19 -18 -17 -17 -16 -16 -16 -17 -16 -16 -16 -16 -16 -15 -15 -15 -15 -16 -15 -14 -14 -14 -14 -14 -14 -14 -14 -14 -14 -14 -14
-19 -18 -18 -17 -17 -17 -17 -17 -17 -17 -16 -16 -15 -15 -14 -14 -15 -15 -16 -15 -14 -14 -14 -14 -14 -14 -14 -14 -14 -14 -14 -14
-18 -18 -17 -17 -17 -17 -17 -16 -16 -15 -15 -14 -15 -15 -14 -14 -15 -15 -15 -15 -14 -14 -14 -14 -14 -14 -14 -14 -14 -14 -14 -14
-18 -18 -17 -17 -17 -17 -16 -16 -15 -14 -14 -14 -14 -14 -14 -14 -14 -14 -14 -14 -14 -14 -14 -14 -14 -14 -14 -14 -14 -14 -14 -14
-18 -18 -18 -18 -18 -17 -16 -16 -15 -14 -15 -14 -14 -14 -14 -14 -13 -14 -13 -14 -14 -14 -14 -14 -14 -14 -14 -14 -14 -14 -14 -14
-18 -17 -16 -16 -16 -16 -16 -15 -15 -15 -15 -15 -14 -14 -14 -14 -14 -14 -14 -14 -14 -14 -14 -14 -14 -14 -14 -14 -14 -14 -14 -14
-17 -17 -16 -16 -16 -17 -16 -16 -15 -16 -16 -15 -15 -15 -14 -14 -14 -14 -14 -14 -14 -14 -14 -14 -14 -14 -14 -14 -14 -14 -14 -14
-18 -17 -16 -16 -16 -16 -16 -16 -16 -16 -16 -16 -16 -16 -16 -16 -15 -16 -15 -16 -15 -15 -14 -14 -14 -15 -14 -14 -14 -14 -14 -14
-18 -17 -17 -17 -16 -16 -16 -16 -16 -16 -16 -17 -16 -17 -17 -17 -16 -16 -15 -15 -15 -15 -14 -14 -14 -15 -15 -14 -14 -14 -14 -14
-19 -19 -17 -17 -17 -17 -17 -17 -17 -17 -17 -17 -17 -17 -17 -16 -16 -16 -15 -15 -15 -14 -14 -14 -15 -15 -14 -14 -14 -14 -14 -15
-19 -19 -19 -18 -17 -17 -17 -17 -17 -17 -17 -18 -17 -17 -16 -16 -16 -15 -15 -15 -15 -14 -15 -15 -15 -15 -14 -15 -15 -15 -15 -15

GFSFLT1_500_temp_135.txt.gz
Temp
-12 -15 -15 -15 -15 -16 -15 -15 -15 -15 -15 -15 -15 -14 -14 -14 -14 -13 -13 -13 -13 -13 -13 -12 -12 -12 -12 -11 -12 -12 -12 -12
-13 -14 -15 -15 -16 -15 -16 -15 -15 -16 -16 -15 -15 -14 -15 -15 -14 -14 -13 -13 -14 -13 -13 -13 -13 -12 -12 -12 -12 -12 -12 -12
-15 -16 -16 -16 -16 -16 -15 -16 -15 -15 -16 -16 -16 -15 -15 -15 -15 -14 -14 -14 -14 -13 -13 -13 -13 -13 -13 -13 -12 -12 -12 -13
-19 -19 -19 -18 -17 -17 -16 -16 -16 -15 -16 -15 -15 -15 -16 -15 -15 -15 -14 -14 -14 -14 -14 -14 -13 -13 -13 -13 -13 -13 -13 -13
-19 -19 -19 -19 -18 -18 -17 -16 -17 -16 -16 -16 -15 -16 -15 -15 -15 -16 -15 -15 -14 -14 -14 -14 -14 -14 -13 -13 -13 -13 -13 -13
-19 -19 -19 -19 -19 -18 -17 -17 -17 -17 -17 -16 -16 -15 -15 -16 -15 -16 -16 -15 -15 -15 -14 -14 -14 -14 -14 -14 -13 -13 -13 -13
-19 -19 -20 -20 -20 -19 -17 -17 -17 -17 -17 -17 -16 -15 -16 -16 -16 -16 -15 -16 -15 -15 -14 -14 -14 -14 -14 -14 -14 -13 -13 -13
-20 -20 -21 -21 -20 -19 -17 -18 -17 -17 -17 -16 -16 -16 -16 -16 -16 -16 -15 -15 -15 -16 -15 -14 -14 -15 -14 -14 -14 -13 -14 -13
-20 -21 -22 -21 -20 -18 -18 -17 -17 -17 -16 -16 -16 -16 -16 -16 -16 -15 -15 -15 -15 -16 -15 -15 -15 -14 -14 -14 -14 -14 -14 -14
-19 -20 -21 -22 -21 -19 -18 -17 -17 -17 -16 -16 -16 -16 -16 -16 -16 -15 -15 -15 -15 -15 -15 -14 -14 -14 -14 -14 -14 -14 -14 -14
-19 -20 -20 -20 -19 -18 -17 -17 -17 -17 -16 -16 -16 -16 -16 -16 -16 -16 -16 -15 -14 -15 -15 -14 -15 -15 -14 -14 -14 -14 -14 -14
-19 -19 -19 -19 -18 -18 -17 -17 -17 -17 -17 -17 -16 -16 -15 -15 -16 -16 -16 -15 -15 -15 -14 -14 -14 -14 -14 -14 -14 -14 -14 -14
-19 -18 -18 -18 -18 -17 -17 -17 -17 -17 -17 -17 -17 -17 -16 -15 -15 -15 -14 -14 -14 -14 -14 -14 -14 -14 -14 -14 -14 -14 -14 -14
-19 -18 -18 -18 -18 -17 -17 -17 -17 -17 -17 -17 -16 -15 -15 -15 -15 -14 -14 -14 -14 -14 -14 -14 -14 -14 -14 -14 -14 -14 -14 -14
-19 -18 -17 -17 -17 -18 -17 -16 -16 -16 -16 -15 -15 -15 -15 -14 -14 -14 -14 -14 -14 -14 -13 -14 -14 -14 -14 -14 -14 -14 -14 -14
-19 -18 -17 -17 -17 -17 -17 -17 -16 -16 -16 -15 -14 -14 -14 -14 -14 -14 -14 -14 -14 -14 -14 -14 -13 -13 -13 -14 -14 -14 -14 -13
-20 -19 -18 -17 -17 -17 -17 -16 -16 -16 -15 -15 -15 -15 -15 -15 -14 -14 -14 -14 -14 -14 -13 -13 -13 -14 -14 -13 -14 -14 -14 -14
-20 -20 -19 -18 -17 -17 -17 -17 -16 -16 -16 -16 -16 -16 -16 -15 -15 -15 -15 -15 -14 -15 -15 -14 -14 -14 -14 -14 -14 -14 -14 -14
-20 -20 -20 -19 -19 -17 -17 -17 -17 -17 -16 -16 -16 -16 -16 -16 -16 -16 -16 -16 -15 -15 -15 -15 -15 -15 -15 -14 -14 -15 -15 -15

GFSFLT1_500_temp_141.txt.gz
Temp
-13 -13 -13 -13 -13 -13 -13 -13 -13 -13 -13 -13 -14 -14 -14 -15 -15 -13 -12 -13 -13 -13 -13 -13 -12 -12 -12 -12 -12 -12 -12 -11
-13 -13 -13 -12 -12 -12 -12 -12 -12 -13 -13 -13 -13 -13 -14 -14 -15 -14 -13 -13 -14 -13 -13 -13 -13 -12 -12 -12 -12 -12 -12 -12
-14 -14 -13 -13 -12 -12 -12 -12 -12 -12 -13 -14 -13 -13 -13 -14 -15 -15 -14 -14 -14 -14 -13 -13 -13 -13 -12 -12 -13 -12 -13 -12
-14 -14 -14 -13 -13 -14 -15 -16 -17 -16 -16 -15 -16 -15 -14 -14 -14 -15 -15 -15 -15 -15 -14 -13 -13 -13 -13 -13 -13 -13 -13 -13
-15 -15 -15 -15 -17 -18 -17 -17 -17 -18 -18 -18 -18 -17 -17 -15 -15 -15 -15 -14 -15 -15 -14 -14 -14 -13 -13 -13 -13 -13 -13 -13
-16 -16 -18 -18 -17 -17 -17 -17 -17 -17 -18 -19 -18 -19 -18 -17 -16 -15 -13 -14 -15 -15 -14 -14 -14 -14 -14 -14 -13 -13 -13 -14
-17 -19 -18 -18 -17 -18 -18 -18 -17 -17 -17 -18 -18 -19 -19 -17 -17 -16 -13 -13 -15 -15 -15 -14 -14 -14 -14 -14 -14 -14 -14 -13
-18 -18 -18 -18 -18 -18 -18 -19 -19 -19 -19 -19 -19 -18 -19 -18 -17 -16 -15 -12 -15 -14 -15 -14 -15 -15 -15 -14 -14 -14 -14 -14
-19 -19 -19 -18 -18 -18 -18 -19 -19 -20 -20 -20 -19 -19 -19 -18 -17 -17 -16 -14 -14 -15 -15 -15 -15 -16 -16 -15 -15 -14 -14 -14
-19 -20 -18 -17 -19 -19 -19 -20 -21 -21 -21 -21 -20 -20 -19 -18 -17 -16 -15 -14 -14 -15 -15 -15 -16 -16 -16 -16 -15 -15 -14 -14
-20 -19 -18 -18 -18 -19 -19 -20 -21 -21 -21 -21 -20 -20 -20 -18 -17 -17 -16 -15 -14 -15 -14 -15 -16 -15 -15 -15 -16 -16 -15 -14
-20 -19 -18 -19 -18 -19 -20 -20 -20 -21 -21 -21 -20 -19 -18 -18 -18 -17 -15 -14 -15 -14 -15 -15 -15 -15 -15 -15 -15 -16 -15 -15
-20 -19 -18 -19 -18 -19 -19 -20 -20 -20 -20 -20 -19 -18 -19 -17 -16 -17 -15 -15 -16 -16 -16 -16 -16 -16 -15 -15 -15 -15 -15 -14
-20 -20 -19 -19 -19 -18 -19 -19 -19 -19 -19 -19 -19 -19 -18 -17 -17 -16 -16 -16 -15 -15 -16 -16 -15 -16 -16 -16 -16 -15 -15 -14
-20 -20 -19 -19 -19 -18 -18 -18 -19 -18 -18 -18 -18 -18 -18 -18 -17 -17 -17 -16 -16 -16 -16 -16 -15 -16 -16 -16 -16 -16 -15 -15
-21 -20 -20 -19 -19 -19 -18 -18 -18 -18 -18 -18 -18 -18 -18 -18 -18 -17 -17 -17 -17 -16 -15 -16 -16 -16 -16 -16 -16 -15 -15 -15
-21 -20 -20 -20 -20 -19 -18 -18 -18 -18 -18 -17 -17 -17 -17 -17 -17 -17 -17 -17 -17 -17 -17 -16 -15 -15 -15 -15 -15 -15 -15 -14
-21 -20 -20 -20 -20 -19 -19 -18 -18 -18 -17 -17 -17 -17 -17 -16 -17 -16 -16 -16 -16 -16 -16 -16 -15 -15 -14 -14 -15 -14 -15 -14
-21 -20 -20 -20 -20 -20 -19 -19 -17 -18 -18 -18 -18 -18 -17 -17 -17 -17 -16 -16 -16 -16 -15 -15 -14 -14 -14 -14 -14 -14 -14 -14

GFSFLT1_500_temp_144.txt.gz
Temp
-14 -14 -14 -14 -14 -14 -14 -13 -13 -13 -13 -13 -13 -13 -13 -13 -13 -13 -13 -14 -12 -12 -13 -14 -13 -13 -12 -12 -12 -12 -11 -11
-14 -14 -14 -14 -14 -13 -13 -13 -13 -13 -12 -13 -13 -13 -13 -12 -13 -13 -13 -13 -14 -12 -12 -14 -14 -13 -13 -12 -12 -12 -12 -12
-14 -14 -14 -14 -14 -13 -13 -12 -12 -12 -12 -12 -12 -12 -12 -12 -12 -12 -14 -13 -14 -13 -12 -13 -14 -13 -13 -13 -12 -13 -12 -12
-14 -14 -14 -14 -14 -14 -13 -13 -13 -14 -14 -15 -15 -13 -14 -14 -13 -12 -12 -13 -13 -13 -12 -12 -14 -14 -13 -13 -12 -13 -13 -12
-15 -15 -15 -15 -14 -14 -14 -14 -16 -17 -18 -17 -17 -17 -18 -17 -16 -15 -14 -12 -12 -11 -12 -12 -13 -14 -13 -13 -13 -13 -13 -13
-15 -15 -15 -15 -15 -15 -16 -18 -17 -17 -17 -16 -17 -17 -17 -17 -17 -17 -15 -14 -11 -14 -13 -12 -12 -14 -14 -14 -13 -13 -13 -13
-15 -15 -15 -15 -16 -18 -18 -17 -17 -17 -17 -17 -17 -17 -17 -17 -17 -17 -16 -16 -14 -11 -14 -12 -13 -15 -15 -14 -13 -13 -13 -13
-15 -15 -16 -16 -18 -19 -18 -18 -17 -17 -17 -17 -18 -18 -18 -18 -17 -17 -16 -16 -15 -14 -12 -13 -13 -14 -15 -14 -14 -13 -13 -13
-16 -16 -17 -19 -19 -19 -18 -17 -18 -18 -18 -19 -20 -20 -19 -19 -18 -17 -16 -17 -16 -15 -12 -13 -15 -15 -15 -15 -15 -14 -13 -13
-17 -17 -19 -19 -19 -19 -17 -17 -18 -18 -19 -20 -21 -21 -20 -19 -18 -18 -18 -15 -16 -16 -13 -11 -13 -15 -16 -15 -15 -14 -13 -13
-17 -18 -19 -19 -19 -19 -17 -17 -18 -18 -19 -20 -21 -21 -21 -19 -19 -19 -18 -18 -15 -16 -14 -12 -14 -14 -15 -15 -16 -15 -13 -13
-17 -18 -19 -19 -19 -19 -17 -18 -18 -19 -19 -20 -21 -20 -20 -19 -18 -17 -17 -16 -16 -15 -14 -13 -13 -15 -15 -15 -16 -15 -14 -14
-17 -19 -19 -19 -19 -19 -17 -18 -18 -18 -19 -20 -20 -20 -20 -19 -18 -18 -17 -16 -16 -16 -14 -15 -15 -15 -16 -15 -15 -14 -14 -14
-18 -19 -20 -20 -20 -19 -18 -18 -18 -18 -18 -19 -18 -18 -19 -19 -18 -17 -18 -17 -17 -16 -16 -15 -15 -16 -15 -15 -15 -14 -14 -14
-18 -19 -20 -20 -20 -19 -19 -17 -18 -18 -18 -18 -18 -18 -17 -17 -17 -17 -17 -16 -16 -15 -14 -14 -14 -15 -15 -15 -15 -15 -15 -15
-19 -20 -20 -20 -20 -20 -19 -18 -17 -18 -18 -18 -18 -18 -18 -17 -17 -16 -15 -16 -16 -13 -14 -14 -14 -14 -14 -15 -15 -15 -16 -15
-19 -19 -20 -20 -20 -20 -19 -19 -18 -17 -18 -18 -18 -18 -18 -18 -17 -17 -17 -17 -16 -16 -16 -15 -14 -12 -15 -15 -15 -16 -16 -15
-19 -19 -20 -20 -20 -20 -19 -19 -19 -18 -17 -18 -18 -18 -18 -17 -17 -17 -17 -17 -17 -17 -16 -16 -16 -15 -15 -15 -16 -16 -16 -16
-19 -20 -20 -20 -20 -20 -20 -19 -19 -19 -18 -18 -18 -17 -17 -17 -17 -17 -17 -17 -16 -16 -16 -16 -16 -16 -16 -16 -16 -16 -15 -15